Terminal Aerodrome Forecast
Issued by NWS Salt Lake City, UT

Home | Current Version | Previous Version | Text Only | Print | Product List | Glossary On
Versions: 1 2 3 4 5 6 7 8 9 10 11 12 13 14 15 16 17 18 19 20 21 22 23 24 25 26
000
FTUS45 KSLC 221725
TAFSLC
TAF
KSLC 221725Z 2218/2324 14010KT P6SM FEW070 SCT200
     FM222100 33007KT P6SM SCT070
     FM230300 16007KT P6SM SCT050 BKN070
     FM231700 34008KT P6SM FEW050 SCT070=

USA.gov is the U.S. government's official web portal to all federal, state and local government web resources and services.